Las Vegas, NV

1:46 AM PDT on August 19, 2017 (GMT -0700)
McCarran International

Weather History for KLAS - November, 2012

Change the Weather History Date:

Tuesday, November 13, 2012

  Actual Average Record
Temperature  
Mean Temperature 54 °F 58 °F  
Max Temperature 66 °F 68 °F 81 °F (1953)
Min Temperature 41 °F 47 °F 16 °F (1938)
Degree Days  
Heating Degree Days 11 8  
Month to date heating degree days 72 74  
Since 1 July heating degree days 91 113  
Cooling Degree Days 0 0  
Month to date cooling degree days 27 10  
Year to date cooling degree days 4031 3566  
Growing Degree Days 2 (Base 50)    
Moisture  
Dew Point 10 °F    
Average Humidity 19    
Maximum Humidity 29    
Minimum Humidity 8    
Precipitation  
Precipitation 0.00 in 0.01 in 0.51 in (1946)
Month to date precipitation T 0.15  
Year to date precipitation 4.82 3.48  
Snow  
Snow 0.00 in 0.00 in 0.00 in ()
Month to date snowfall 0.0 0.0  
Since 1 July snowfall T 0.0  
Since 1 September snowfall T 0.0  
Snow Depth 0.00 in    
Sea Level Pressure  
Sea Level Pressure 30.19 in    
Wind  
Wind Speed 7 mph (SSW)    
Max Wind Speed 12 mph    
Max Gust Speed 13 mph    
Visibility 10 miles    
Events      
T = Trace of Precipitation, MM = Missing Value Source: NWS Daily Summary

Daily Weather History Graph

Daily Weather History Graph

Search for Another Location

Airport or City:

Trip Planner

Search our weather history database for the weather conditions in past years. The results will help you decide how hot, cold, wet, or windy it might be!

Date:

Astronomy

Nov. 13, 2012 Rise Set
Actual Time 6:15 AM PST 4:33 PM PST
Civil Twilight 5:48 AM PST 5:01 PM PST
Nautical Twilight 5:17 AM PST 5:31 PM PST
Astronomical Twilight 4:47 AM PST 6:02 PM PST
Moon 5:58 AM PST (11/13) 4:31 PM PST (11/13)
Length of Visible Light 11h 12m
Length of Day
10h 17m
Waning Crescent, 0% of the Moon is Illuminated
Nov 13
Waning Crescent
Nov 13
New
Nov 20
First Quarter
Nov 28
Full
Dec 6
Last Quarter

Hourly Weather History & Observations

Time (PST) Temp. Windchill Dew Point Humidity Pressure Visibility Wind Dir Wind Speed Gust Speed Precip Events Conditions
12:56 AM 44.1 °F 39.5 °F 10.9 °F 26% 30.24 in 10.0 mi SSW 8.1 mph - N/A   Clear
1:56 AM 43.0 °F 39.5 °F 10.9 °F 27% 30.24 in 10.0 mi SSW 5.8 mph - N/A   Clear
2:56 AM 42.1 °F 36.6 °F 10.9 °F 28% 30.23 in 10.0 mi SSW 9.2 mph - N/A   Clear
3:56 AM 41.0 °F 34.7 °F 9.0 °F 27% 30.23 in 10.0 mi SSW 10.4 mph - N/A   Clear
4:56 AM 44.1 °F 39.5 °F 7.0 °F 22% 30.24 in 10.0 mi SW 8.1 mph - N/A   Clear
5:56 AM 42.1 °F 36.1 °F 7.0 °F 24% 30.24 in 10.0 mi SSW 10.4 mph - N/A   Clear
6:56 AM 43.0 °F 37.7 °F 8.1 °F 24% 30.25 in 10.0 mi SSW 9.2 mph - N/A   Clear
7:56 AM 48.0 °F - 9.0 °F 21% 30.25 in 10.0 mi SSW 5.8 mph - N/A   Clear
8:56 AM 53.1 °F - 10.0 °F 18% 30.26 in 10.0 mi South 5.8 mph - N/A   Clear
9:56 AM 55.9 °F - 9.0 °F 15% 30.25 in 10.0 mi SSE 3.5 mph - N/A   Clear
10:56 AM 59.0 °F - 5.0 °F 12% 30.23 in 10.0 mi SSW 3.5 mph - N/A   Clear
11:56 AM 60.1 °F - 9.0 °F 13% 30.20 in 10.0 mi SSE 4.6 mph - N/A   Clear
12:56 PM 63.0 °F - 8.1 °F 11% 30.17 in 10.0 mi Calm Calm - N/A   Clear
1:56 PM 64.0 °F - 6.1 °F 10% 30.14 in 10.0 mi SSW 3.5 mph - N/A   Partly Cloudy
2:56 PM 66.0 °F - 5.0 °F 9% 30.12 in 10.0 mi Calm Calm - N/A   Partly Cloudy
3:56 PM 64.9 °F - 5.0 °F 9% 30.12 in 10.0 mi SSW 3.5 mph - N/A   Partly Cloudy
4:56 PM 62.1 °F - 7.0 °F 11% 30.12 in 10.0 mi SSW 8.1 mph - N/A   Partly Cloudy
5:56 PM 60.1 °F - 10.0 °F 14% 30.14 in 10.0 mi SSW 8.1 mph - N/A   Clear
6:56 PM 55.9 °F - 15.1 °F 20% 30.14 in 10.0 mi SSW 6.9 mph - N/A   Clear
7:56 PM 52.0 °F - 14.0 °F 22% 30.15 in 10.0 mi SSW 9.2 mph - N/A   Clear
8:56 PM 51.1 °F - 15.1 °F 24% 30.15 in 10.0 mi SSW 9.2 mph - N/A   Clear
9:56 PM 50.0 °F - 15.1 °F 25% 30.14 in 10.0 mi SSW 11.5 mph - N/A   Clear
10:56 PM 48.0 °F - 17.1 °F 29% 30.13 in 10.0 mi SSW 8.1 mph - N/A   Clear
11:56 PM 46.9 °F - 17.1 °F 30% 30.14 in 10.0 mi SSW 6.9 mph - N/A   Clear